Flag for Austria Weather past 2 weeks in Kirchdorf an der Krems, Upper Austria, Austria

Now
92 °F

Passing clouds.


Feels Like: 91 °F
Forecast: 61 / 92 °F
Wind: 16 mph from Southeast

Location: Kremsmuenster

Current Time: Aug 31, 2015 at 4:18:02 PM

Latest Report: Aug 31, 2015 at 3:00 PM


Visibility: 2 mi

Pressure: 29.85 "Hg

Humidity: 30%

Dew point: 56 °F

Location of Kirchdorf an der KremsLocation

Historic Weather in Kirchdorf an der Krems — Graph

°F

Kirchdorf an der Krems temperature yesterday

Maximum temperature yesterday: 95 °F (at 5:00 PM)
Minimum temperature yesterday: 63 °F (at 7:00 AM)
Average temperature yesterday: 79 °F

Past Weeks' High & Low Weather Summary

 TemperatureHumidityPressure
High95 °F (Aug 30, 5:00 PM)93% (Aug 17, 8:00 AM)30.27 "Hg (Aug 17, 8:00 AM)
Low49 °F (Aug 26, 7:00 AM)26% (Aug 26, 4:00 PM)29.65 "Hg (Aug 24, 6:00 PM)
Average68 °F65%30.01 "Hg
* Reported Aug 16 3:00 PM — Aug 31 3:00 PM, Kirchdorf an der Krems, Weather by CustomWeather, © 2015

Note: Actual official high and low records may vary slightly from our data, if they occured in-between our weather recording intervals... More about our weather records

Advertising

Kirchdorf an der Krems weather history for previous 24 hours

 ConditionsComfort  
Time TempWeatherWind HumidityBarometerVisibility
3:00 PM
Mon, Aug 31
92 °FHot.1 mph30%29.85 "HgN/A
2:00 PM91 °FHot.No wind34%29.87 "HgN/A
1:00 PM88 °FPassing clouds.13 mph38%29.89 "Hg1 mi
12:00 PM85 °FWarm.No wind40%29.92 "HgN/A
11:00 AM80 °FWarm.No wind48%29.94 "HgN/A
10:00 AM76 °FMild.1 mph58%29.97 "HgN/A
9:00 AM72 °FMild.1 mph62%29.98 "HgN/A
8:00 AM69 °FSunny.3 mph64%29.99 "Hg22 mi
7:00 AM67 °FPassing clouds.5 mph66%29.98 "Hg34 mi
6:00 AM67 °FMild.2 mph67%29.98 "HgN/A
5:00 AM65 °FMild.2 mph76%29.98 "HgN/A
4:00 AM71 °FMild.5 mph61%29.98 "HgN/A
3:00 AM70 °FMild.3 mph66%29.99 "HgN/A
2:00 AM70 °FMild.2 mph70%30.01 "HgN/A
1:00 AM73 °FMild.3 mph65%30.00 "HgN/A
12:00 AM76 °FMild.3 mph62%30.00 "HgN/A
10:00 PM
Sun, Aug 30
80 °FWarm.5 mph58%29.99 "HgN/A
9:00 PM80 °FWarm.1 mph55%29.98 "HgN/A
8:00 PM83 °FClear.3 mph46%29.96 "Hg22 mi
7:00 PM89 °FHot.No wind37%29.95 "HgN/A
6:00 PM95 °FExtremely hot.No wind32%29.94 "HgN/A
5:00 PM95 °FExtremely hot.1 mph31%29.96 "HgN/A
4:00 PM94 °FExtremely hot.2 mph31%29.98 "HgN/A
Weather by CustomWeather, © 2015

See weather overviewHow to use our weather pages